TimeEST,TemperatureF,Dew PointF,Humidity,Sea Level PressureIn,VisibilityMPH,Wind Direction,Wind SpeedMPH,Gust SpeedMPH,PrecipitationIn,Events,Conditions,WindDirDegrees,DateUTC
12:08 AM,24.8,21.2,86,29.88,10.0,Calm,Calm,-,N/A,,Overcast,0,2013-01-07 05:08:00
12:45 AM,24.8,21.2,86,29.88,8.0,Calm,Calm,-,0.00,,Overcast,0,2013-01-07 05:45:00
12:52 AM,25.0,21.9,88,29.94,7.0,Calm,Calm,-,0.00,Snow,Light Snow,0,2013-01-07 05:52:00
1:00 AM,24.8,21.2,86,29.89,7.0,Calm,Calm,-,0.00,Snow,Light Snow,0,2013-01-07 06:00:00
1:52 AM,27.0,24.1,89,29.96,8.0,Calm,Calm,-,0.00,,Overcast,0,2013-01-07 06:52:00
2:52 AM,30.0,27.0,88,29.99,8.0,West,4.6,-,N/A,,Overcast,280,2013-01-07 07:52:00
3:22 AM,30.2,26.6,86,29.96,10.0,NW,6.9,-,N/A,,Overcast,320,2013-01-07 08:22:00
3:32 AM,30.2,24.8,80,29.97,10.0,NW,6.9,-,N/A,,Overcast,320,2013-01-07 08:32:00
3:52 AM,28.9,25.0,85,30.03,7.0,WNW,5.8,-,0.00,Snow,Light Snow,290,2013-01-07 08:52:00
4:11 AM,28.4,24.8,86,29.99,6.0,NW,8.1,-,0.00,Snow,Light Snow,310,2013-01-07 09:11:00
4:26 AM,28.4,23.0,80,30.00,7.0,NW,9.2,-,0.00,Snow,Light Snow,310,2013-01-07 09:26:00
4:52 AM,28.0,21.9,78,30.07,10.0,NW,10.4,-,0.00,,Overcast,320,2013-01-07 09:52:00
5:16 AM,26.6,21.2,80,30.04,10.0,WNW,12.7,-,N/A,,Overcast,300,2013-01-07 10:16:00
5:49 AM,24.8,19.4,80,30.07,10.0,NW,13.8,-,N/A,,Overcast,310,2013-01-07 10:49:00
5:52 AM,25.0,19.0,78,30.13,10.0,NW,11.5,-,N/A,,Overcast,310,2013-01-07 10:52:00
6:26 AM,23.0,17.6,80,30.11,10.0,North,4.6,-,N/A,,Overcast,360,2013-01-07 11:26:00
6:35 AM,21.2,15.8,80,30.12,10.0,North,6.9,-,N/A,,Overcast,360,2013-01-07 11:35:00
6:52 AM,21.0,15.1,78,30.18,10.0,North,9.2,-,N/A,,Overcast,350,2013-01-07 11:52:00
7:52 AM,19.9,14.0,78,30.24,10.0,North,4.6,-,N/A,,Overcast,350,2013-01-07 12:52:00
8:22 AM,19.4,14.0,80,30.20,2.5,NNW,4.6,-,0.00,Snow,Light Snow,340,2013-01-07 13:22:00
8:35 AM,19.4,14.0,80,30.21,3.0,North,5.8,-,0.00,Snow,Light Snow,350,2013-01-07 13:35:00
8:52 AM,19.9,12.9,74,30.28,3.0,North,4.6,-,0.00,Snow,Light Snow,360,2013-01-07 13:52:00
9:52 AM,19.0,12.0,74,30.32,3.0,North,5.8,-,0.00,Snow,Light Snow,350,2013-01-07 14:52:00
10:52 AM,19.9,10.0,65,30.32,10.0,NW,5.8,-,0.00,,Overcast,320,2013-01-07 15:52:00
11:52 AM,19.9,9.0,62,30.32,10.0,West,3.5,-,N/A,,Overcast,260,2013-01-07 16:52:00
12:41 PM,21.2,6.8,54,30.27,10.0,West,3.5,-,N/A,,Scattered Clouds,280,2013-01-07 17:41:00
12:52 PM,21.0,6.1,53,30.33,10.0,WNW,4.6,-,N/A,,Partly Cloudy,290,2013-01-07 17:52:00
1:52 PM,21.9,7.0,53,30.32,10.0,Calm,Calm,-,N/A,,Clear,0,2013-01-07 18:52:00
2:52 PM,21.9,7.0,53,30.34,10.0,WSW,3.5,-,N/A,,Clear,240,2013-01-07 19:52:00
3:52 PM,21.9,7.0,53,30.36,10.0,SW,3.5,-,N/A,,Clear,220,2013-01-07 20:52:00
4:52 PM,14.0,8.1,77,30.37,10.0,Calm,Calm,-,N/A,,Clear,0,2013-01-07 21:52:00
5:52 PM,10.0,6.1,84,30.37,10.0,Calm,Calm,-,N/A,,Clear,0,2013-01-07 22:52:00
6:52 PM,3.9,-0.9,80,30.38,9.0,Calm,Calm,-,N/A,,Clear,0,2013-01-07 23:52:00
7:52 PM,-0.0,-4.0,83,30.35,10.0,Calm,Calm,-,N/A,,Clear,0,2013-01-08 00:52:00
8:52 PM,-2.0,-7.1,79,30.34,10.0,Calm,Calm,-,N/A,,Clear,0,2013-01-08 01:52:00
9:52 PM,-4.0,-9.0,79,30.33,10.0,Calm,Calm,-,N/A,,Clear,0,2013-01-08 02:52:00
10:52 PM,-6.0,-11.0,79,30.33,10.0,Calm,Calm,-,N/A,,Clear,0,2013-01-08 03:52:00
11:52 PM,-7.1,-11.9,79,30.31,10.0,Calm,Calm,-,N/A,,Clear,0,2013-01-08 04:52:00